,,,PA_Meas_PMT16A,,PR_Meas_QMR101_102,,RH_Meas_QMH101,,SR_Meas_QMS101,,TA_Meas_QMH101,,GenWind,,GenWind,
date,time,status,PA,status,PR,status,RH,status,SR,status,TA,status,DirAvg,status,SpdAvg,
2011-08-08, 00:00:04,VALID,1000.37,VALID,0,VALID,88.3892,VALID,0,VALID,22.7062,VALID,43,VALID,0,
2011-08-08, 00:01:04,VALID,1000.41,VALID,0,VALID,88.4273,VALID,0,VALID,22.7079,VALID,43,VALID,0,
2011-08-08, 00:02:04,VALID,1000.36,VALID,0,VALID,88.4578,VALID,0,VALID,22.6672,VALID,43,VALID,0,
2011-08-08, 00:03:04,VALID,1000.42,VALID,0,VALID,88.4578,VALID,0,VALID,22.6689,VALID,43,VALID,0,
2011-08-08, 00:04:04,VALID,1000.42,VALID,0,VALID,88.496,VALID,0,VALID,22.6494,VALID,43,VALID,0.530078,
2011-08-08, 00:05:04,VALID,1000.42,VALID,0,VALID,88.5646,VALID,0,VALID,22.6689,VALID,43,VALID,0.715625,
2011-08-08, 00:06:04,VALID,1000.41,VALID,0,VALID,88.6943,VALID,0,VALID,22.6689,VALID,43,VALID,0.641406,
2011-08-08, 00:07:04,VALID,1000.4,VALID,0,VALID,88.7935,VALID,0,VALID,22.7079,VALID,43,VALID,0.924219,
2011-08-08, 00:08:04,VALID,1000.4,VALID,0,VALID,88.9156,VALID,0,VALID,22.6884,VALID,43,VALID,0.817578,
2011-08-08, 00:09:04,VALID,1000.39,VALID,0,VALID,88.9461,VALID,0,VALID,22.6884,VALID,43,VALID,0.910547,
2011-08-08, 00:10:04,VALID,1000.39,VALID,0,VALID,88.9385,VALID,0,VALID,22.6689,VALID,62,VALID,0.909766,
2011-08-08, 00:11:04,VALID,1000.43,VALID,0,VALID,89.0529,VALID,0,VALID,22.6511,VALID,65,VALID,1.05469,
2011-08-08, 00:12:04,VALID,1000.43,VALID,0,VALID,89.2284,VALID,0,VALID,22.6299,VALID,68,VALID,0.897266,
2011-08-08, 00:13:04,VALID,1000.39,VALID,0,VALID,89.3352,VALID,0,VALID,22.5909,VALID,68,VALID,0.684766,
2011-08-08, 00:14:04,VALID,1000.38,VALID,0,VALID,89.3886,VALID,0,VALID,22.5714,VALID,68,VALID,0.480859,
2011-08-08, 00:15:04,VALID,1000.4,VALID,0,VALID,89.4497,VALID,0,VALID,22.5714,VALID,68,VALID,0.194141,
2011-08-08, 00:16:04,VALID,1000.36,VALID,0,VALID,89.4726,VALID,0,VALID,22.5306,VALID,68,VALID,0,
2011-08-08, 00:17:04,VALID,1000.38,VALID,0,VALID,89.6175,VALID,0.112286,VALID,22.5111,VALID,68,VALID,0.0632813,
2011-08-08, 00:18:04,VALID,1000.35,VALID,0,VALID,89.7625,VALID,0,VALID,22.5306,VALID,68,VALID,0,
2011-08-08, 00:19:04,VALID,1000.31,VALID,0,VALID,89.9227,VALID,0,VALID,22.5094,VALID,68,VALID,0,
2011-08-08, 00:20:04,VALID,1000.27,VALID,0,VALID,90.06,VALID,0,VALID,22.5094,VALID,68,VALID,0.100781,
2011-08-08, 00:21:04,VALID,1000.29,VALID,0,VALID,90.0982,VALID,0,VALID,22.5111,VALID,35,VALID,0.883594,
2011-08-08, 00:22:04,VALID,1000.26,VALID,0,VALID,90.0524,VALID,0,VALID,22.5306,VALID,35,VALID,0.735156,
2011-08-08, 00:23:04,VALID,1000.27,VALID,0,VALID,89.9685,VALID,0,VALID,22.5111,VALID,35,VALID,0.475781,
2011-08-08, 00:24:04,VALID,1000.31,VALID,0,VALID,89.8693,VALID,0,VALID,22.4916,VALID,35,VALID,0.219531,
2011-08-08, 00:25:04,VALID,1000.29,VALID,0,VALID,89.8464,VALID,0,VALID,22.4721,VALID,35,VALID,0.341797,
2011-08-08, 00:26:04,VALID,1000.29,VALID,0,VALID,89.8388,VALID,0.112286,VALID,22.4314,VALID,35,VALID,0.283984,
2011-08-08, 00:27:04,VALID,1000.3,VALID,0,VALID,89.8464,VALID,0.112286,VALID,22.4331,VALID,35,VALID,0.29375,
2011-08-08, 00:28:04,VALID,1000.31,VALID,0,VALID,89.8998,VALID,0,VALID,22.4331,VALID,35,VALID,0.0121094,
2011-08-08, 00:29:04,VALID,1000.3,VALID,0,VALID,89.9074,VALID,0,VALID,22.4136,VALID,35,VALID,0,
2011-08-08, 00:30:04,VALID,1000.28,VALID,0,VALID,89.938,VALID,0,VALID,22.4136,VALID,35,VALID,0,
2011-08-08, 00:31:04,VALID,1000.29,VALID,0,VALID,89.9609,VALID,0,VALID,22.3941,VALID,35,VALID,0.205078,
2011-08-08, 00:32:04,VALID,1000.28,VALID,0,VALID,90.0295,VALID,0,VALID,22.3941,VALID,35,VALID,0.407031,
2011-08-08, 00:33:04,VALID,1000.26,VALID,0,VALID,89.9914,VALID,0,VALID,22.4153,VALID,35,VALID,0.552734,
2011-08-08, 00:34:04,VALID,1000.26,VALID,0,VALID,89.9151,VALID,0,VALID,22.3941,VALID,35,VALID,0.525781,
2011-08-08, 00:35:04,VALID,1000.26,VALID,0,VALID,89.8159,VALID,0,VALID,22.3941,VALID,35,VALID,0.625781,
2011-08-08, 00:36:04,VALID,1000.27,VALID,0,VALID,89.8464,VALID,0,VALID,22.3746,VALID,35,VALID,0.709766,
2011-08-08, 00:37:04,VALID,1000.28,VALID,0,VALID,89.9151,VALID,0,VALID,22.4136,VALID,35,VALID,0.629687,
2011-08-08, 00:38:04,VALID,1000.27,VALID,0,VALID,89.9151,VALID,0,VALID,22.4543,VALID,35,VALID,0.623438,
2011-08-08, 00:39:04,VALID,1000.27,VALID,0,VALID,89.8693,VALID,0,VALID,22.4348,VALID,35,VALID,0.763672,
2011-08-08, 00:40:04,VALID,1000.23,VALID,0,VALID,89.7701,VALID,0,VALID,22.4331,VALID,35,VALID,0.567578,
2011-08-08, 00:41:04,VALID,1000.24,VALID,0,VALID,89.6404,VALID,0,VALID,22.4331,VALID,35,VALID,0.619922,
2011-08-08, 00:42:04,VALID,1000.22,VALID,0,VALID,89.5183,VALID,0,VALID,22.4331,VALID,35,VALID,0.549219,
2011-08-08, 00:43:04,VALID,1000.28,VALID,0,VALID,89.4726,VALID,0,VALID,22.4331,VALID,35,VALID,0.604688,
2011-08-08, 00:44:04,VALID,1000.28,VALID,0,VALID,89.4878,VALID,0,VALID,22.4331,VALID,35,VALID,0.564844,
2011-08-08, 00:45:04,VALID,1000.31,VALID,0,VALID,89.526,VALID,0,VALID,22.4738,VALID,35,VALID,0.84375,
2011-08-08, 00:46:04,VALID,1000.27,VALID,0,VALID,89.5031,VALID,0,VALID,22.4721,VALID,35,VALID,1.16328,
2011-08-08, 00:47:04,VALID,1000.29,VALID,0,VALID,89.381,VALID,0,VALID,22.4721,VALID,35,VALID,1.58789,
2011-08-08, 00:48:04,VALID,1000.3,VALID,0,VALID,89.3734,VALID,0,VALID,22.4348,VALID,35,VALID,1.4168,
2011-08-08, 00:49:04,VALID,1000.28,VALID,0,VALID,89.6023,VALID,0,VALID,22.3941,VALID,35,VALID,0.977734,
2011-08-08, 00:50:04,VALID,1000.27,VALID,0,VALID,89.7396,VALID,0,VALID,22.3763,VALID,35,VALID,0.778516,
2011-08-08, 00:51:04,VALID,1000.25,VALID,0,VALID,89.8998,VALID,0,VALID,22.3356,VALID,35,VALID,1.14414,
2011-08-08, 00:52:04,VALID,1000.23,VALID,0,VALID,90.06,VALID,0,VALID,22.3356,VALID,35,VALID,0.937109,
2011-08-08, 00:53:04,VALID,1000.2,VALID,0,VALID,90.2431,VALID,0,VALID,22.3161,VALID,35,VALID,0.703906,
2011-08-08, 00:54:04,VALID,1000.18,VALID,0,VALID,90.2889,VALID,0,VALID,22.3178,VALID,35,VALID,0.0425781,
2011-08-08, 00:55:04,VALID,1000.18,VALID,0,VALID,90.2966,VALID,0,VALID,22.2771,VALID,35,VALID,0.0425781,
2011-08-08, 00:56:04,VALID,1000.16,VALID,0,VALID,90.3576,VALID,0,VALID,22.2381,VALID,35,VALID,0.378516,
2011-08-08, 00:57:04,VALID,1000.11,VALID,0,VALID,90.4949,VALID,0,VALID,22.2983,VALID,35,VALID,0.566406,
2011-08-08, 00:58:04,VALID,1000.09,VALID,0,VALID,90.5636,VALID,0,VALID,22.2771,VALID,35,VALID,0.620313,
2011-08-08, 00:59:04,VALID,1000.1,VALID,0,VALID,90.5712,VALID,0,VALID,22.2788,VALID,35,VALID,0.432031,
2011-08-08, 01:00:04,VALID,1000.1,VALID,0,VALID,90.5636,VALID,0,VALID,22.2576,VALID,35,VALID,0,
2011-08-08, 01:01:04,VALID,1000.08,VALID,0,VALID,90.556,VALID,0,VALID,22.2788,VALID,35,VALID,0.126563,
2011-08-08, 01:02:04,VALID,1000.02,VALID,0,VALID,90.5636,VALID,0,VALID,22.2771,VALID,35,VALID,0.534766,
2011-08-08, 01:03:04,VALID,1000.03,VALID,0,VALID,90.6017,VALID,0,VALID,22.2788,VALID,35,VALID,0.508203,
2011-08-08, 01:04:04,VALID,1000.01,VALID,0,VALID,90.5941,VALID,0,VALID,22.2788,VALID,35,VALID,0.363281,
2011-08-08, 01:05:04,VALID,1000.02,VALID,0,VALID,90.6017,VALID,0,VALID,22.2576,VALID,35,VALID,0.324609,
2011-08-08, 01:06:04,VALID,999.974,VALID,0,VALID,90.5407,VALID,0,VALID,22.2788,VALID,35,VALID,0.142188,
2011-08-08, 01:07:04,VALID,999.969,VALID,0,VALID,90.472,VALID,0,VALID,22.2186,VALID,35,VALID,0,
2011-08-08, 01:08:04,VALID,999.982,VALID,0,VALID,90.4491,VALID,0,VALID,22.199,VALID,35,VALID,0,
2011-08-08, 01:09:04,VALID,999.945,VALID,0,VALID,90.4568,VALID,0,VALID,22.2007,VALID,35,VALID,0,
2011-08-08, 01:10:04,VALID,999.93,VALID,0,VALID,90.5026,VALID,0,VALID,22.1812,VALID,35,VALID,0,
2011-08-08, 01:11:04,VALID,999.927,VALID,0,VALID,90.6246,VALID,0,VALID,22.2007,VALID,35,VALID,0.321094,
2011-08-08, 01:12:04,VALID,999.928,VALID,0,VALID,90.7162,VALID,0,VALID,22.2202,VALID,35,VALID,0.376172,
2011-08-08, 01:13:04,VALID,999.904,VALID,0,VALID,90.7238,VALID,0,VALID,22.2202,VALID,35,VALID,0.526172,
2011-08-08, 01:14:04,VALID,999.947,VALID,0,VALID,90.6857,VALID,0,VALID,22.2007,VALID,35,VALID,0.597656,
2011-08-08, 01:15:04,VALID,999.963,VALID,0,VALID,90.5788,VALID,0,VALID,22.2202,VALID,35,VALID,0.473437,
2011-08-08, 01:16:04,VALID,999.974,VALID,0,VALID,90.411,VALID,0,VALID,22.2186,VALID,35,VALID,0.530078,
2011-08-08, 01:17:04,VALID,999.975,VALID,0,VALID,90.2203,VALID,0,VALID,22.2592,VALID,35,VALID,0.579687,
2011-08-08, 01:18:04,VALID,999.981,VALID,0,VALID,89.9609,VALID,0,VALID,22.2186,VALID,35,VALID,0.8,
2011-08-08, 01:19:04,VALID,999.981,VALID,0,VALID,89.8846,VALID,0,VALID,22.2397,VALID,26,VALID,1.16602,
2011-08-08, 01:20:04,VALID,999.997,VALID,0,VALID,89.9151,VALID,0,VALID,22.2397,VALID,26,VALID,1.15703,
2011-08-08, 01:21:04,VALID,999.967,VALID,0,VALID,89.9685,VALID,0,VALID,22.2007,VALID,26,VALID,1.15742,
2011-08-08, 01:22:04,VALID,999.98,VALID,0,VALID,90.0295,VALID,0,VALID,22.1795,VALID,26,VALID,0.970312,
2011-08-08, 01:23:04,VALID,999.969,VALID,0,VALID,90.1134,VALID,0,VALID,22.1812,VALID,26,VALID,0.761328,
2011-08-08, 01:24:04,VALID,999.971,VALID,0,VALID,90.144,VALID,0,VALID,22.1422,VALID,26,VALID,0.778906,
2011-08-08, 01:25:04,VALID,999.991,VALID,0,VALID,90.266,VALID,0,VALID,22.1422,VALID,26,VALID,0.709766,
2011-08-08, 01:26:04,VALID,999.971,VALID,0,VALID,90.2431,VALID,0,VALID,22.1422,VALID,26,VALID,0.777344,
2011-08-08, 01:27:04,VALID,999.981,VALID,0,VALID,90.144,VALID,0,VALID,22.1227,VALID,26,VALID,0.741016,
2011-08-08, 01:28:04,VALID,999.972,VALID,0,VALID,90.1363,VALID,0,VALID,22.1227,VALID,27,VALID,0.993359,
2011-08-08, 01:29:04,VALID,1000,VALID,0,VALID,90.1287,VALID,0,VALID,22.1422,VALID,36,VALID,1.00273,
2011-08-08, 01:30:04,VALID,999.989,VALID,0,VALID,90.0066,VALID,0,VALID,22.1227,VALID,36,VALID,0.986328,
2011-08-08, 01:31:04,VALID,999.984,VALID,0,VALID,89.8235,VALID,0,VALID,22.1422,VALID,36,VALID,0.840234,
2011-08-08, 01:32:04,VALID,999.976,VALID,0,VALID,89.5641,VALID,0,VALID,22.16,VALID,36,VALID,0.766406,
2011-08-08, 01:33:04,VALID,999.939,VALID,0,VALID,89.3963,VALID,0,VALID,22.1812,VALID,36,VALID,0.699609,
2011-08-08, 01:34:04,VALID,999.93,VALID,0,VALID,89.381,VALID,0,VALID,22.2007,VALID,36,VALID,0.730469,
2011-08-08, 01:35:04,VALID,999.904,VALID,0,VALID,89.4802,VALID,0,VALID,22.2007,VALID,36,VALID,0.739453,
2011-08-08, 01:36:04,VALID,999.917,VALID,0,VALID,89.7167,VALID,0,VALID,22.2219,VALID,36,VALID,0.770703,
2011-08-08, 01:37:04,VALID,999.902,VALID,0,VALID,89.8464,VALID,0,VALID,22.2007,VALID,36,VALID,0.774219,
2011-08-08, 01:38:04,VALID,999.929,VALID,0,VALID,89.9685,VALID,0,VALID,22.1812,VALID,36,VALID,0.733984,
2011-08-08, 01:39:04,VALID,999.928,VALID,0,VALID,90.0906,VALID,0,VALID,22.1422,VALID,36,VALID,0.713281,
2011-08-08, 01:40:04,VALID,999.917,VALID,0,VALID,90.205,VALID,0,VALID,22.1617,VALID,36,VALID,0.757813,
2011-08-08, 01:41:04,VALID,999.88,VALID,0,VALID,90.2889,VALID,0,VALID,22.1227,VALID,36,VALID,0.783594,
2011-08-08, 01:42:04,VALID,999.873,VALID,0,VALID,90.2737,VALID,0,VALID,22.1227,VALID,36,VALID,0.557031,
2011-08-08, 01:43:04,VALID,999.904,VALID,0,VALID,90.1668,VALID,0,VALID,22.0837,VALID,36,VALID,0.776172,
2011-08-08, 01:44:04,VALID,999.877,VALID,0,VALID,90.0143,VALID,0,VALID,22.0625,VALID,36,VALID,0.524609,
2011-08-08, 01:45:04,VALID,999.858,VALID,0,VALID,89.9303,VALID,0,VALID,22.0642,VALID,36,VALID,0.185547,
2011-08-08, 01:46:04,VALID,999.841,VALID,0,VALID,89.854,VALID,0,VALID,22.0447,VALID,36,VALID,0.145313,
2011-08-08, 01:47:04,VALID,999.837,VALID,0,VALID,89.7625,VALID,0,VALID,22.0447,VALID,36,VALID,0,
2011-08-08, 01:48:04,VALID,999.87,VALID,0,VALID,89.732,VALID,0,VALID,22.0252,VALID,36,VALID,0.529688,
2011-08-08, 01:49:04,VALID,999.883,VALID,0,VALID,89.793,VALID,0,VALID,22.0252,VALID,36,VALID,0.624609,
2011-08-08, 01:50:04,VALID,999.88,VALID,0,VALID,89.6404,VALID,0,VALID,22.0252,VALID,36,VALID,0.773438,
2011-08-08, 01:51:04,VALID,999.871,VALID,0,VALID,89.3734,VALID,0,VALID,22.0252,VALID,36,VALID,0.658203,
2011-08-08, 01:52:04,VALID,999.901,VALID,0,VALID,89.2132,VALID,0,VALID,22.0057,VALID,36,VALID,0.600781,
2011-08-08, 01:53:04,VALID,999.894,VALID,0,VALID,89.236,VALID,0,VALID,21.9862,VALID,36,VALID,0.624219,
2011-08-08, 01:54:04,VALID,999.88,VALID,0,VALID,89.2818,VALID,0,VALID,22.0057,VALID,36,VALID,0.697266,
2011-08-08, 01:55:04,VALID,999.901,VALID,0,VALID,89.1979,VALID,0,VALID,21.9845,VALID,36,VALID,0.856641,
2011-08-08, 01:56:04,VALID,999.891,VALID,0,VALID,89.1445,VALID,0,VALID,22.0057,VALID,36,VALID,1.08789,
2011-08-08, 01:57:04,VALID,999.879,VALID,0,VALID,89.0606,VALID,0,VALID,22.0057,VALID,38,VALID,1.46992,
2011-08-08, 01:58:04,VALID,999.909,VALID,0,VALID,89.0606,VALID,0,VALID,22.0057,VALID,41,VALID,1.44141,
2011-08-08, 01:59:04,VALID,999.91,VALID,0,VALID,89.1445,VALID,0,VALID,22.0252,VALID,52,VALID,1.45234,
2011-08-08, 02:00:04,VALID,999.905,VALID,0,VALID,89.3886,VALID,0,VALID,22.004,VALID,50,VALID,1.50898,
2011-08-08, 02:01:04,VALID,999.934,VALID,0,VALID,89.7167,VALID,0,VALID,22.0235,VALID,57,VALID,1.70469,
2011-08-08, 02:02:04,VALID,999.969,VALID,0,VALID,89.9151,VALID,0,VALID,22.0447,VALID,54,VALID,1.15625,
2011-08-08, 02:03:04,VALID,999.97,VALID,0,VALID,90.0524,VALID,0,VALID,22.0252,VALID,54,VALID,1.10469,
2011-08-08, 02:04:04,VALID,999.959,VALID,0,VALID,90.0829,VALID,0,VALID,22.004,VALID,54,VALID,0.909375,
2011-08-08, 02:05:04,VALID,999.982,VALID,0,VALID,90.1134,VALID,0,VALID,21.9845,VALID,54,VALID,0.963672,
2011-08-08, 02:06:04,VALID,1000.02,VALID,0,VALID,90.1821,VALID,0,VALID,21.9845,VALID,54,VALID,0.641016,
2011-08-08, 02:07:04,VALID,1000.01,VALID,0,VALID,90.266,VALID,0,VALID,21.9862,VALID,54,VALID,0.81875,
2011-08-08, 02:08:04,VALID,1000.02,VALID,0,VALID,90.3652,VALID,0,VALID,21.9862,VALID,54,VALID,0.676172,
2011-08-08, 02:09:04,VALID,1000.06,VALID,0,VALID,90.3881,VALID,0,VALID,21.9862,VALID,54,VALID,0.608984,
2011-08-08, 02:10:04,VALID,1000.06,VALID,0,VALID,90.3652,VALID,0,VALID,21.9472,VALID,54,VALID,0.253906,
2011-08-08, 02:11:04,VALID,1000.04,VALID,0,VALID,90.3347,VALID,0,VALID,21.9277,VALID,54,VALID,0.2375,
2011-08-08, 02:12:04,VALID,1000.07,VALID,0,VALID,90.2813,VALID,0,VALID,21.8692,VALID,54,VALID,0.371875,
2011-08-08, 02:13:04,VALID,1000.04,VALID,0,VALID,90.3271,VALID,0,VALID,21.848,VALID,54,VALID,0.572266,
2011-08-08, 02:14:04,VALID,1000.03,VALID,0,VALID,90.4034,VALID,0,VALID,21.8496,VALID,54,VALID,0.551172,
2011-08-08, 02:15:04,VALID,1000.01,VALID,0,VALID,90.4034,VALID,0,VALID,21.8496,VALID,54,VALID,0.733594,
2011-08-08, 02:16:04,VALID,1000.01,VALID,0,VALID,90.4186,VALID,0,VALID,21.8675,VALID,54,VALID,0.75625,
2011-08-08, 02:17:04,VALID,1000,VALID,0,VALID,90.4034,VALID,0,VALID,21.8658,VALID,84,VALID,0.921484,
2011-08-08, 02:18:04,VALID,1000.02,VALID,0,VALID,90.5102,VALID,0.112286,VALID,21.926,VALID,114,VALID,0.941406,
2011-08-08, 02:19:04,VALID,1000.04,VALID,0,VALID,90.6475,VALID,0,VALID,22.004,VALID,126,VALID,1.12109,
2011-08-08, 02:20:04,VALID,1000.04,VALID,0,VALID,90.8459,VALID,0.112286,VALID,22.1015,VALID,126,VALID,1.0082,
2011-08-08, 02:21:04,VALID,1000.07,VALID,0,VALID,90.8459,VALID,0,VALID,22.1405,VALID,126,VALID,1.06367,
2011-08-08, 02:22:04,VALID,1000.08,VALID,0,VALID,90.7543,VALID,0.112286,VALID,22.16,VALID,126,VALID,0.833594,
2011-08-08, 02:23:04,VALID,1000.1,VALID,0,VALID,90.6399,VALID,0,VALID,22.1795,VALID,126,VALID,0.767187,
2011-08-08, 02:24:04,VALID,1000.08,VALID,0,VALID,90.617,VALID,0,VALID,22.2186,VALID,126,VALID,0.790625,
2011-08-08, 02:25:04,VALID,1000.09,VALID,0,VALID,90.5331,VALID,0,VALID,22.2381,VALID,126,VALID,0.760547,
2011-08-08, 02:26:04,VALID,1000.11,VALID,0,VALID,90.4491,VALID,0,VALID,22.2381,VALID,126,VALID,0.891016,
2011-08-08, 02:27:04,VALID,1000.12,VALID,0,VALID,90.3652,VALID,0,VALID,22.2381,VALID,126,VALID,0.851953,
2011-08-08, 02:28:04,VALID,1000.14,VALID,0,VALID,90.2431,VALID,0,VALID,22.2381,VALID,126,VALID,0.659766,
2011-08-08, 02:29:04,VALID,1000.15,VALID,0,VALID,90.144,VALID,0.112286,VALID,22.2576,VALID,126,VALID,0.695703,
2011-08-08, 02:30:04,VALID,1000.18,VALID,0,VALID,90.0295,VALID,0,VALID,22.2576,VALID,126,VALID,0.719141,
2011-08-08, 02:31:04,VALID,1000.18,VALID,0,VALID,89.8311,VALID,0,VALID,22.2397,VALID,110,VALID,0.90625,
2011-08-08, 02:32:04,VALID,1000.16,VALID,0,VALID,89.6862,VALID,0,VALID,22.2186,VALID,110,VALID,0.955469,
2011-08-08, 02:33:04,VALID,1000.18,VALID,0,VALID,89.5794,VALID,0,VALID,22.2381,VALID,110,VALID,0.689844,
2011-08-08, 02:34:04,VALID,1000.16,VALID,0,VALID,89.587,VALID,0,VALID,22.2771,VALID,110,VALID,0.871094,
2011-08-08, 02:35:04,VALID,1000.16,VALID,0,VALID,89.4954,VALID,0,VALID,22.2983,VALID,110,VALID,0.736328,
2011-08-08, 02:36:04,VALID,1000.15,VALID,0,VALID,89.3734,VALID,0,VALID,22.2771,VALID,110,VALID,0.787109,
2011-08-08, 02:37:04,VALID,1000.12,VALID,0,VALID,89.32,VALID,0,VALID,22.2771,VALID,110,VALID,0.660937,
2011-08-08, 02:38:04,VALID,1000.12,VALID,0,VALID,89.4344,VALID,0,VALID,22.2966,VALID,110,VALID,0.730078,
2011-08-08, 02:39:04,VALID,1000.1,VALID,0,VALID,89.5641,VALID,0,VALID,22.3373,VALID,124,VALID,0.693359,
2011-08-08, 02:40:04,VALID,1000.11,VALID,0,VALID,89.5717,VALID,0,VALID,22.3568,VALID,124,VALID,0.572656,
2011-08-08, 02:41:04,VALID,1000.13,VALID,0,VALID,89.4954,VALID,0,VALID,22.3568,VALID,124,VALID,0.530859,
2011-08-08, 02:42:04,VALID,1000.13,VALID,0,VALID,89.1521,VALID,0,VALID,22.3568,VALID,124,VALID,0.527344,
2011-08-08, 02:43:04,VALID,1000.12,VALID,0,VALID,88.7325,VALID,0,VALID,22.3568,VALID,124,VALID,0.605078,
2011-08-08, 02:44:04,VALID,1000.12,VALID,0,VALID,88.2823,VALID,0,VALID,22.3568,VALID,124,VALID,0.578906,
2011-08-08, 02:45:04,VALID,1000.15,VALID,0,VALID,87.8703,VALID,0,VALID,22.3568,VALID,124,VALID,0.512109,
2011-08-08, 02:46:04,VALID,1000.1,VALID,0,VALID,87.6491,VALID,0,VALID,22.3568,VALID,124,VALID,0.669531,
2011-08-08, 02:47:04,VALID,1000.12,VALID,0,VALID,87.6109,VALID,0,VALID,22.3373,VALID,120,VALID,0.737891,
2011-08-08, 02:48:04,VALID,1000.12,VALID,0,VALID,87.8398,VALID,0,VALID,22.3373,VALID,119,VALID,0.853516,
2011-08-08, 02:49:04,VALID,1000.1,VALID,0,VALID,87.8932,VALID,0,VALID,22.3373,VALID,119,VALID,0.418359,
2011-08-08, 02:50:04,VALID,1000.11,VALID,0,VALID,87.8474,VALID,0,VALID,22.3178,VALID,119,VALID,0.0617188,
2011-08-08, 02:51:04,VALID,1000.12,VALID,0,VALID,87.8246,VALID,0,VALID,22.2788,VALID,119,VALID,0,
2011-08-08, 02:52:04,VALID,1000.09,VALID,0,VALID,87.9543,VALID,0,VALID,22.2381,VALID,119,VALID,0,
2011-08-08, 02:53:04,VALID,1000.09,VALID,0,VALID,88.084,VALID,0,VALID,22.2202,VALID,119,VALID,0.117969,
2011-08-08, 02:54:04,VALID,1000.11,VALID,0,VALID,88.29,VALID,0,VALID,22.199,VALID,119,VALID,0.00585938,
2011-08-08, 02:55:04,VALID,1000.08,VALID,0,VALID,88.3892,VALID,0,VALID,22.1812,VALID,119,VALID,0,
2011-08-08, 02:56:04,VALID,1000.1,VALID,0,VALID,88.4578,VALID,0,VALID,22.1617,VALID,119,VALID,0,
2011-08-08, 02:57:04,VALID,1000.08,VALID,0,VALID,88.6486,VALID,0,VALID,22.1405,VALID,119,VALID,0,
2011-08-08, 02:58:04,VALID,1000.07,VALID,0,VALID,88.8317,VALID,0,VALID,22.1405,VALID,119,VALID,0,
2011-08-08, 02:59:04,VALID,1000.06,VALID,0,VALID,88.7706,VALID,0,VALID,22.1227,VALID,119,VALID,0,
2011-08-08, 03:00:04,VALID,1000.07,VALID,0,VALID,88.9614,VALID,0,VALID,22.1032,VALID,119,VALID,0,
2011-08-08, 03:01:04,VALID,1000.07,VALID,0,VALID,89.1674,VALID,0,VALID,22.1032,VALID,119,VALID,0,
2011-08-08, 03:02:04,VALID,1000.08,VALID,0,VALID,89.3352,VALID,0,VALID,22.0837,VALID,119,VALID,0,
2011-08-08, 03:03:04,VALID,1000.07,VALID,0,VALID,89.4039,VALID,0,VALID,22.1032,VALID,119,VALID,0,
2011-08-08, 03:04:04,VALID,1000.07,VALID,0,VALID,89.5107,VALID,0,VALID,22.1032,VALID,119,VALID,0,
2011-08-08, 03:05:04,VALID,1000.04,VALID,0,VALID,89.4497,VALID,0,VALID,22.0837,VALID,119,VALID,0,
2011-08-08, 03:06:04,VALID,1000.05,VALID,0,VALID,89.236,VALID,0,VALID,22.0447,VALID,119,VALID,0,
2011-08-08, 03:07:04,VALID,1000.02,VALID,0,VALID,89.3963,VALID,0,VALID,22.0235,VALID,119,VALID,0.265625,
2011-08-08, 03:08:04,VALID,1000.02,VALID,0,VALID,89.4497,VALID,0,VALID,22.0642,VALID,119,VALID,0.473047,
2011-08-08, 03:09:04,VALID,1000.01,VALID,0,VALID,89.1597,VALID,0,VALID,22.0625,VALID,136,VALID,0.759375,
2011-08-08, 03:10:04,VALID,999.991,VALID,0,VALID,88.9461,VALID,0,VALID,22.16,VALID,136,VALID,0.712891,
2011-08-08, 03:11:04,VALID,999.977,VALID,0,VALID,88.5417,VALID,0,VALID,22.2771,VALID,136,VALID,0.758984,
2011-08-08, 03:12:04,VALID,999.998,VALID,0,VALID,88.0992,VALID,0,VALID,22.3746,VALID,136,VALID,0.476563,
2011-08-08, 03:13:04,VALID,1000.04,VALID,0,VALID,87.6414,VALID,0,VALID,22.4348,VALID,136,VALID,0.340625,
2011-08-08, 03:14:04,VALID,1000.03,VALID,0,VALID,87.1608,VALID,0,VALID,22.4543,VALID,136,VALID,0,
2011-08-08, 03:15:04,VALID,1000.04,VALID,0,VALID,87.0158,VALID,0,VALID,22.4543,VALID,136,VALID,0.459375,
2011-08-08, 03:16:04,VALID,1000.02,VALID,0,VALID,87.0921,VALID,0,VALID,22.4153,VALID,136,VALID,0.533594,
2011-08-08, 03:17:04,VALID,1000.03,VALID,0,VALID,87.0921,VALID,0,VALID,22.3568,VALID,136,VALID,0.431641,
2011-08-08, 03:18:04,VALID,1000.03,VALID,0,VALID,87.2905,VALID,0,VALID,22.3178,VALID,136,VALID,0.392188,
2011-08-08, 03:19:04,VALID,1000.02,VALID,0,VALID,87.672,VALID,0,VALID,22.2983,VALID,136,VALID,0.432813,
2011-08-08, 03:20:04,VALID,1000.01,VALID,0,VALID,87.9771,VALID,0,VALID,22.3178,VALID,136,VALID,0.385938,
2011-08-08, 03:21:04,VALID,1000.03,VALID,0,VALID,88.1603,VALID,0,VALID,22.2966,VALID,136,VALID,0.275391,
2011-08-08, 03:22:04,VALID,1000.01,VALID,0,VALID,88.3434,VALID,0,VALID,22.2966,VALID,136,VALID,0.239453,
2011-08-08, 03:23:04,VALID,1000.01,VALID,0,VALID,88.4273,VALID,0,VALID,22.2983,VALID,136,VALID,0.322266,
2011-08-08, 03:24:04,VALID,1000,VALID,0,VALID,88.4578,VALID,0,VALID,22.2397,VALID,136,VALID,0.503516,
2011-08-08, 03:25:04,VALID,999.989,VALID,0,VALID,88.5036,VALID,0,VALID,22.199,VALID,136,VALID,0.455859,
2011-08-08, 03:26:04,VALID,999.987,VALID,0,VALID,88.4654,VALID,0,VALID,22.1812,VALID,136,VALID,0.350391,
2011-08-08, 03:27:04,VALID,999.97,VALID,0,VALID,88.6409,VALID,0,VALID,22.16,VALID,136,VALID,0.183203,
2011-08-08, 03:28:04,VALID,999.946,VALID,0,VALID,88.7172,VALID,0,VALID,22.1405,VALID,136,VALID,0,
2011-08-08, 03:29:04,VALID,999.941,VALID,0,VALID,88.8011,VALID,0,VALID,22.1812,VALID,136,VALID,0,
2011-08-08, 03:30:04,VALID,999.949,VALID,0,VALID,88.7859,VALID,0,VALID,22.1617,VALID,136,VALID,0,
2011-08-08, 03:31:04,VALID,999.973,VALID,0,VALID,88.8011,VALID,0,VALID,22.1617,VALID,136,VALID,0,
2011-08-08, 03:32:04,VALID,999.982,VALID,0,VALID,88.8317,VALID,0,VALID,22.1422,VALID,136,VALID,0,
2011-08-08, 03:33:04,VALID,999.964,VALID,0,VALID,88.7783,VALID,0,VALID,22.1015,VALID,136,VALID,0.0433594,
2011-08-08, 03:34:04,VALID,999.964,VALID,0,VALID,88.7172,VALID,0,VALID,22.0837,VALID,136,VALID,0,
2011-08-08, 03:35:04,VALID,999.958,VALID,0,VALID,88.7401,VALID,0,VALID,22.043,VALID,136,VALID,0,
2011-08-08, 03:36:04,VALID,999.97,VALID,0,VALID,88.8011,VALID,0,VALID,22.004,VALID,136,VALID,0,
2011-08-08, 03:37:04,VALID,999.984,VALID,0,VALID,88.9614,VALID,0,VALID,22.0057,VALID,136,VALID,0,
2011-08-08, 03:38:04,VALID,999.992,VALID,0,VALID,89.1826,VALID,0,VALID,22.0057,VALID,136,VALID,0.19375,
2011-08-08, 03:39:04,VALID,999.98,VALID,0,VALID,89.442,VALID,0,VALID,22.0235,VALID,136,VALID,0.235156,
2011-08-08, 03:40:04,VALID,1000.01,VALID,0,VALID,89.6328,VALID,0,VALID,22.0625,VALID,136,VALID,0.300781,
2011-08-08, 03:41:04,VALID,999.999,VALID,0,VALID,89.7167,VALID,0,VALID,22.082,VALID,136,VALID,0.530859,
2011-08-08, 03:42:04,VALID,999.978,VALID,0,VALID,89.648,VALID,0,VALID,22.121,VALID,136,VALID,0.734375,
2011-08-08, 03:43:04,VALID,999.992,VALID,0,VALID,89.5031,VALID,0,VALID,22.1422,VALID,136,VALID,0.694531,
2011-08-08, 03:44:04,VALID,999.99,VALID,0,VALID,89.4802,VALID,0,VALID,22.1812,VALID,136,VALID,0.614062,
2011-08-08, 03:45:04,VALID,999.971,VALID,0,VALID,89.4802,VALID,0,VALID,22.2592,VALID,136,VALID,0.579297,
2011-08-08, 03:46:04,VALID,999.996,VALID,0,VALID,89.3428,VALID,0,VALID,22.3178,VALID,136,VALID,0.710547,
2011-08-08, 03:47:04,VALID,999.979,VALID,0,VALID,89.0529,VALID,0,VALID,22.3746,VALID,136,VALID,0.766016,
2011-08-08, 03:48:04,VALID,999.977,VALID,0,VALID,88.7249,VALID,0,VALID,22.4526,VALID,136,VALID,0.587891,